Tracking 31027 objects as of 19-Jul-2025
HD Live streaming from Space Station
objects crossing your sky now

FENGYUN 1C DEB

Track FENGYUN 1C DEB now!
10-day predictions


NORAD ID: 30345
Int'l Code: 1999-025ABG
Perigee: 756.6 km
Apogee: 778.3 km
Inclination: 98.9 °
Period: 100.0 minutes
Semi major axis: 7138 km
RCS: 0.035 m2 (small)
Launch date: May 10, 1999
Source: People's Republic of China (PRC)
Launch site: Taiyaun Space Center, China (TSC)

Note: This is SATELLITE DEBRIS
Your satellite tracking list
FENGYUN 1C DEB
Track 1 satellite(s)




NASA's NSSDC Master Catalog

Two Line Element Set (TLE):
1 30345U 99025ABG 25199.60057322  .00003670  00000-0  11915-2 0  9996
2 30345  98.9300 252.7046 0015230 325.5154  34.5043 14.39449918956694
Source of the keplerian elements: AFSPC